Location: Parc National du Mont-Orford
(45.3122°N, 72.2403°W)
Time: 12:38:15
(UTC-04:00)

Envisat - Visible Passes

Search period start: 20 July 2018 00:00
Search period end: 30 July 2018 00:00
Orbit: 764 x 766 km, 98.2° (Epoch: 20 July)

Date Brightness Start Highest point End Pass type
(mag) Time Alt. Az. Time Alt. Az. Time Alt. Az.
20 Jul 5.5 21:10:28 10° SW 21:14:06 20° W 21:17:45 10° NW visible
22 Jul 6.0 21:38:34 10° WSW 21:40:01 11° W 21:41:27 10° WNW visible
23 Jul 5.3 20:58:44 10° SSW 21:02:50 24° W 21:06:57 10° NW visible
25 Jul 5.7 21:26:00 10° WSW 21:28:41 14° W 21:31:23 10° NW visible
28 Jul 5.6 21:13:59 10° SW 21:17:23 18° W 21:20:49 10° NW visible
